Powrót do katalogu

ONEWEB-0284

AktywnyŁącznośćPO
NORAD 49002·PAYLOAD·🇬🇧 United Kingdom

Wystrzelony Jul 1, 2021 z Vostochny Cosmodrome

Loading…

Następne Przeloty (najbliższe 24 godziny)

TLE

ŚwieżeSource: CelesTrak SupGP

Epoka: Sep 14, 2026, 12:51 UTC

1 49002C 21060AM  26257.53555972 -.00002771  00000+0 -72584-2 0  2570
2 49002  87.9154 211.0324 0001765  77.2529 321.3747 13.16597768    16

Śledź ONEWEB-0284 w czasie rzeczywistym z AllMySat

Download on the App Store